Terug naar catalogus

ARIANE 44LP DEB

ActiefGTO
NORAD 33544·DEBRIS·🇫🇷 France

Gelanceerd Dec 11, 1988 vanaf Guiana Space Centre

Loading…

TLE

VerouderendSource: Space-Track

Epoch: Sep 14, 2026, 06:37 UTC

1 33544U 88109T   26257.27613635  .00000723  00000-0  14415-2 0  9999
2 33544   7.1227   7.8166 7152160 148.2425 288.7476  2.38213441205597

Volg ARIANE 44LP DEB in realtime met AllMySat

Download on the App Store